Miscellaneous Local Product
Issued by NWS Hastings, NE

Home | Current Version | Previous Version | Text Only | Print | Product List | Glossary On
Versions: 1 2 3 4 5 6 7 8 9 10 11 12 13 14 15 16 17 18 19 20 21 22 23 24 25 26 27 28 29 30 31 32 33 34 35 36 37 38 39 40 41 42 43 44 45 46 47 48 49 50
000
AXUS43 KGID 220502
MISGRI

GID CWA HOURLY WEATHER ROUNDUP
NATIONAL WEATHER SERVICE HASTINGS NE
1200 AM CDT WED OCT 22 2014

NOTE: "FAIR" INDICATES FEW OR NO CLOUDS BELOW 12,000 FEET WITH NO
SIGNIFICANT WEATHER AND/OR OBSTRUCTIONS TO VISIBILITY.

...SOUTH CENTRAL NEBRASKA...

CITY           SKY/WX    TMP DP  RH WIND       PRES   REMARKS
GRAND ISLAND   CLEAR     61  48  62 S14       29.97F
HASTINGS       CLEAR     61  50  67 SE14      29.97F
KEARNEY        CLEAR     61  54  77 SE12      29.97R
ORD            PTCLDY    58  48  69 VRB3      29.94F
YORK           CLEAR     59  43  55 SE15      30.00F
AURORA         CLEAR     60  44  54 SE10G16   29.99S HAZE
LEXINGTON      PTCLDY    64  57  79 SE7       29.95S
HOLDREGE       PTCLDY    60  55  81 CALM      29.96S
HEBRON         CLEAR     59  47  65 SE9       30.01S

...NEBRASKA PANHANDLE...

CITY           SKY/WX    TMP DP  RH WIND       PRES   REMARKS
CHADRON        CLOUDY    62  45  53 S3        29.81S
ALLIANCE       MOCLDY    51  44  77 CALM      29.88S
SCOTTSBLUFF    LGT RAIN  60  48  64 W9        29.89R
SIDNEY         MOCLDY    54  41  61 SW5       29.91S

...WESTERN AND NORTH CENTRAL NEBRASKA...

CITY           SKY/WX    TMP DP  RH WIND       PRES   REMARKS
VALENTINE      PTCLDY    65  55  70 S20       29.84F
AINSWORTH      PTCLDY    61  53  73 S20G26    29.88F
ONEILL         PTCLDY    61  44  53 SE12G17   29.94F
BROKEN BOW     PTCLDY    61  54  77 SE12      29.93F
IMPERIAL       PTCLDY    63  46  54 S12       29.91F
NORTH PLATTE   PTCLDY    66  52  60 S14       29.91S
MCCOOK         PTCLDY    65  51  60 S15       29.94S

...EASTERN NEBRASKA...

CITY           SKY/WX    TMP DP  RH WIND       PRES   REMARKS
NORFOLK        CLEAR     60  39  45 SE15      30.00S
SO SIOUX CITY  CLEAR     51  43  74 SE8       30.06S
TEKAMAH        CLEAR     56  44  64 SE15      30.06F
COLUMBUS       CLEAR     61  37  41 SE9       30.03S
ALBION         CLEAR     55  41  58 SE6       29.99S
OMAHA EPPLEY   PTCLDY    58  44  60 SE16      30.08S
OFFUTT AFB     PTCLDY    55  47  74 SE9       30.07S
MILLARD        MOCLDY    58  43  57 SE7       30.07R
LINCOLN        CLEAR     61  42  49 SE13      30.05S
NEBRASKA CITY  CLOUDY    58  37  45 SE12      30.08S
BEATRICE       CLEAR     60  43  54 SE10      30.04S
FALLS CITY     MOCLDY    54  43  66 SE9       30.08S

...NORTHERN KANSAS...

CITY           SKY/WX    TMP DP  RH WIND       PRES   REMARKS
GOODLAND       CLEAR     57  47  69 S12       29.96S
HILL CITY      PTCLDY    65  53  65 S10       29.97R
NORTON         CLEAR     63  50  63 S13       29.95R
PHILLIPSBURG   CLEAR     64  55  72 E6        29.96S
SMITH CENTER   CLEAR     61  55  82 SE10      29.98S
BELOIT         CLEAR     63  57  82 SE8       29.98S
HAYS           PTCLDY    64  52  63 S16       29.98S
RUSSELL        PTCLDY    64  56  75 S13       29.97F
CONCORDIA      CLEAR     63  56  78 SE14      30.01S
SALINA         CLEAR     65  57  75 S12       30.02S
TOPEKA         CLEAR     57  47  69 E7        30.09S



USA.gov is the U.S. government's official web portal to all federal, state and local government web resources and services.